GPS BIIF-12 (41328 NORAD) Tracking and Keplerian Element Data

This shows tracking and keplerian element data for the satellite.

Feedback or suggestion? Click here.




ElementValue
Catalog41328
NameGPS BIIF-12
Epoch Orbit2097
Epoch Day352.16800081
Epoch Year2018
RAAN198.1727
Inclination54.8248
Eccentricity0.0024986
Argument of Perigee213.8864
Mean Anonmoly146.0318
Mean Motion2.00556151
Decay Rate1.11E-06
L11 41328U 16007A 18352.16800081 .00000111 00000-0 00000+0 0 9997
L22 41328 54.8248 198.1727 0024986 213.8864 146.0318 2.00556151 20973

Live tracking and technical data element details for GPS BIIF-12 (NORAD 41328). GPS BIIF-12 can be tracked NOW for your location showing map with azimuth and elevation plus other details from your city location.

Track the satellite on the map from your city or location and see movement details for azimuth, elevation, latitude, longitude, range, height, and movement on the map or in text.







IsCatalogInMostPopularTable: catalog: 41328, numindb: 101
Update: records affected: 1



GetName: 41328 GPS BIIF-12

Hit Count: updated at: Wed, 19 Dec 2018 15:25:47 GMT